owner,sensor,date,latitude,longitude,vertical_datum,sea_water_practical_salinity,qcFlag 
NERRS,ioos:station:NOAA.NERRS:wkbfrwq:1,2017-01-01T01:45:00Z,30.4162,-87.8228,2.33,11.5,1111122 
NERRS,ioos:station:NOAA.NERRS:wkbfrwq:1,2017-01-01T02:45:00Z,30.4162,-87.8228,2.36,11.4,1111122 
NERRS,ioos:station:NOAA.NERRS:wkbfrwq:1,2017-01-01T03:45:00Z,30.4162,-87.8228,2.43,11.4,1111122 
NERRS,ioos:station:NOAA.NERRS:wkbfrwq:1,2017-01-01T04:45:00Z,30.4162,-87.8228,2.5,11.3,1111122 
NERRS,ioos:station:NOAA.NERRS:wkbfrwq:1,2017-01-01T05:45:00Z,30.4162,-87.8228,2.56,11.3,1111122 
NERRS,ioos:station:NOAA.NERRS:wkbfrwq:1,2017-01-01T07:45:00Z,30.4162,-87.8228,2.53,11.3,1111122 
NERRS,ioos:station:NOAA.NERRS:wkbfrwq:1,2017-01-01T08:45:00Z,30.4162,-87.8228,2.57,11.6,1111122 
NERRS,ioos:station:NOAA.NERRS:wkbfrwq:1,2017-01-01T09:45:00Z,30.4162,-87.8228,2.53,11.2,1111122 
NERRS,ioos:station:NOAA.NERRS:wkbfrwq:1,2017-01-01T10:45:00Z,30.4162,-87.8228,2.48,11.0,1111122 
NERRS,ioos:station:NOAA.NERRS:wkbfrwq:1,2017-01-01T11:45:00Z,30.4162,-87.8228,2.44,10.8,1111122 
NERRS,ioos:station:NOAA.NERRS:wkbfrwq:1,2017-01-01T13:45:00Z,30.4162,-87.8228,0.0,5.9,1111122 
NERRS,ioos:station:NOAA.NERRS:wkbfrwq:1,2017-01-01T14:45:00Z,30.4162,-87.8228,2.2,4.6,1111122 
NERRS,ioos:station:NOAA.NERRS:wkbfrwq:1,2017-01-01T15:45:00Z,30.4162,-87.8228,2.2,4.1,1111122 
NERRS,ioos:station:NOAA.NERRS:wkbfrwq:1,2017-01-01T16:45:00Z,30.4162,-87.8228,2.21,4.3,1111122 
NERRS,ioos:station:NOAA.NERRS:wkbfrwq:1,2017-01-01T17:45:00Z,30.4162,-87.8228,2.23,3.9,1111122 
NERRS,ioos:station:NOAA.NERRS:wkbfrwq:1,2017-01-01T18:45:00Z,30.4162,-87.8228,2.23,4.5,1111122 
NERRS,ioos:station:NOAA.NERRS:wkbfrwq:1,2017-01-01T19:45:00Z,30.4162,-87.8228,2.3,3.9,1111122 
NERRS,ioos:station:NOAA.NERRS:wkbfrwq:1,2017-01-01T20:45:00Z,30.4162,-87.8228,2.37,3.1,1111122 
NERRS,ioos:station:NOAA.NERRS:wkbfrwq:1,2017-01-01T21:45:00Z,30.4162,-87.8228,2.41,2.3,1111122 
NERRS,ioos:station:NOAA.NERRS:wkbfrwq:1,2017-01-01T23:45:00Z,30.4162,-87.8228,2.5,1.3,1111122 
NERRS,ioos:station:NOAA.NERRS:wkbfrwq:1,2017-01-02T00:45:00Z,30.4162,-87.8228,2.54,1.1,1111122 
NERRS,ioos:station:NOAA.NERRS:wkbfrwq:1,2017-01-02T01:45:00Z,30.4162,-87.8228,2.58,0.9,1111122 
NERRS,ioos:station:NOAA.NERRS:wkbfrwq:1,2017-01-02T02:45:00Z,30.4162,-87.8228,2.63,0.8,1111122 
NERRS,ioos:station:NOAA.NERRS:wkbfrwq:1,2017-01-02T05:45:00Z,30.4162,-87.8228,2.72,0.7,1111122 
NERRS,ioos:station:NOAA.NERRS:wkbfrwq:1,2017-01-02T06:45:00Z,30.4162,-87.8228,2.64,0.6,1111122 
NERRS,ioos:station:NOAA.NERRS:wkbfrwq:1,2017-01-02T07:45:00Z,30.4162,-87.8228,2.56,0.6,1111122 
NERRS,ioos:station:NOAA.NERRS:wkbfrwq:1,2017-01-02T08:45:00Z,30.4162,-87.8228,2.51,0.5,1111122 
NERRS,ioos:station:NOAA.NERRS:wkbfrwq:1,2017-01-02T09:45:00Z,30.4162,-87.8228,2.49,0.5,1111122 
NERRS,ioos:station:NOAA.NERRS:wkbfrwq:1,2017-01-02T10:45:00Z,30.4162,-87.8228,2.43,0.5,1111122 
NERRS,ioos:station:NOAA.NERRS:wkbfrwq:1,2017-01-02T13:45:00Z,30.4162,-87.8228,2.23,0.4,1111122 
NERRS,ioos:station:NOAA.NERRS:wkbfrwq:1,2017-01-02T14:45:00Z,30.4162,-87.8228,2.22,0.4,1111122 
NERRS,ioos:station:NOAA.NERRS:wkbfrwq:1,2017-01-02T15:45:00Z,30.4162,-87.8228,2.19,0.4,1111122 
NERRS,ioos:station:NOAA.NERRS:wkbfrwq:1,2017-01-02T16:45:00Z,30.4162,-87.8228,2.15,0.4,1111122 
NERRS,ioos:station:NOAA.NERRS:wkbfrwq:1,2017-01-02T17:45:00Z,30.4162,-87.8228,2.12,0.4,1111122 
NERRS,ioos:station:NOAA.NERRS:wkbfrwq:1,2017-01-02T18:45:00Z,30.4162,-87.8228,2.13,0.4,1111122 
NERRS,ioos:station:NOAA.NERRS:wkbfrwq:1,2017-01-02T20:45:00Z,30.4162,-87.8228,2.36,0.4,1111122 
NERRS,ioos:station:NOAA.NERRS:wkbfrwq:1,2017-01-02T22:45:00Z,30.4162,-87.8228,2.35,0.4,1111122 
NERRS,ioos:station:NOAA.NERRS:wkbfrwq:1,2017-01-02T23:45:00Z,30.4162,-87.8228,2.47,0.4,1111122 
NERRS,ioos:station:NOAA.NERRS:wkbfrwq:1,2017-01-03T00:45:00Z,30.4162,-87.8228,2.58,0.6,1111122 
NERRS,ioos:station:NOAA.NERRS:wkbfrwq:1,2017-01-03T01:45:00Z,30.4162,-87.8228,2.64,0.5,1111122 
NERRS,ioos:station:NOAA.NERRS:wkbfrwq:1,2017-01-03T02:45:00Z,30.4162,-87.8228,2.47,0.3,1111122 
NERRS,ioos:station:NOAA.NERRS:wkbfrwq:1,2017-01-03T03:45:00Z,30.4162,-87.8228,2.44,0.3,1111122 
NERRS,ioos:station:NOAA.NERRS:wkbfrwq:1,2017-01-03T04:45:00Z,30.4162,-87.8228,2.47,0.3,1111122 
NERRS,ioos:station:NOAA.NERRS:wkbfrwq:1,2017-01-03T05:45:00Z,30.4162,-87.8228,2.56,0.3,1111122 
NERRS,ioos:station:NOAA.NERRS:wkbfrwq:1,2017-01-03T06:45:00Z,30.4162,-87.8228,2.62,0.3,1111122 
NERRS,ioos:station:NOAA.NERRS:wkbfrwq:1,2017-01-03T07:45:00Z,30.4162,-87.8228,2.6,0.3,1111122 
NERRS,ioos:station:NOAA.NERRS:wkbfrwq:1,2017-01-03T08:45:00Z,30.4162,-87.8228,2.58,0.2,1111122 
NERRS,ioos:station:NOAA.NERRS:wkbfrwq:1,2017-01-03T09:45:00Z,30.4162,-87.8228,2.51,0.2,1111122 
NERRS,ioos:station:NOAA.NERRS:wkbfrwq:1,2017-01-03T10:45:00Z,30.4162,-87.8228,2.44,0.2,1111122 
NERRS,ioos:station:NOAA.NERRS:wkbfrwq:1,2017-01-03T11:45:00Z,30.4162,-87.8228,2.39,0.2,1111122 
NERRS,ioos:station:NOAA.NERRS:wkbfrwq:1,2017-01-03T12:45:00Z,30.4162,-87.8228,2.32,0.2,1111122 
NERRS,ioos:station:NOAA.NERRS:wkbfrwq:1,2017-01-03T13:45:00Z,30.4162,-87.8228,2.26,0.2,1111122 
NERRS,ioos:station:NOAA.NERRS:wkbfrwq:1,2017-01-03T14:45:00Z,30.4162,-87.8228,2.21,0.2,1111122 
NERRS,ioos:station:NOAA.NERRS:wkbfrwq:1,2017-01-03T15:45:00Z,30.4162,-87.8228,2.17,0.2,1111122 
NERRS,ioos:station:NOAA.NERRS:wkbfrwq:1,2017-01-03T16:45:00Z,30.4162,-87.8228,2.16,0.2,1111122 
NERRS,ioos:station:NOAA.NERRS:wkbfrwq:1,2017-01-03T17:45:00Z,30.4162,-87.8228,2.15,0.2,1111122 
NERRS,ioos:station:NOAA.NERRS:wkbfrwq:1,2017-01-03T18:45:00Z,30.4162,-87.8228,2.16,0.2,1111122 
NERRS,ioos:station:NOAA.NERRS:wkbfrwq:1,2017-01-03T19:45:00Z,30.4162,-87.8228,2.21,0.2,1111122 
NERRS,ioos:station:NOAA.NERRS:wkbfrwq:1,2017-01-03T20:45:00Z,30.4162,-87.8228,2.27,0.2,1111122 
NERRS,ioos:station:NOAA.NERRS:wkbfrwq:1,2017-01-03T21:45:00Z,30.4162,-87.8228,2.33,0.2,1111122 
NERRS,ioos:station:NOAA.NERRS:wkbfrwq:1,2017-01-03T22:45:00Z,30.4162,-87.8228,2.38,0.2,1111122 
NERRS,ioos:station:NOAA.NERRS:wkbfrwq:1,2017-01-03T23:45:00Z,30.4162,-87.8228,2.39,0.2,1111122 
NERRS,ioos:station:NOAA.NERRS:wkbfrwq:1,2017-01-04T00:45:00Z,30.4162,-87.8228,2.4,0.2,1111122 
NERRS,ioos:station:NOAA.NERRS:wkbfrwq:1,2017-01-04T01:45:00Z,30.4162,-87.8228,2.42,0.2,1111122 
NERRS,ioos:station:NOAA.NERRS:wkbfrwq:1,2017-01-04T02:45:00Z,30.4162,-87.8228,2.44,0.2,1111122 
NERRS,ioos:station:NOAA.NERRS:wkbfrwq:1,2017-01-04T03:45:00Z,30.4162,-87.8228,2.45,0.2,1111122 
NERRS,ioos:station:NOAA.NERRS:wkbfrwq:1,2017-01-04T04:45:00Z,30.4162,-87.8228,2.46,0.2,1111122 
NERRS,ioos:station:NOAA.NERRS:wkbfrwq:1,2017-01-04T05:45:00Z,30.4162,-87.8228,2.45,0.2,1111122 
NERRS,ioos:station:NOAA.NERRS:wkbfrwq:1,2017-01-04T06:45:00Z,30.4162,-87.8228,2.44,0.2,1111122 
NERRS,ioos:station:NOAA.NERRS:wkbfrwq:1,2017-01-04T07:45:00Z,30.4162,-87.8228,2.43,0.2,1111122 
NERRS,ioos:station:NOAA.NERRS:wkbfrwq:1,2017-01-04T08:45:00Z,30.4162,-87.8228,2.41,0.2,1111122 
NERRS,ioos:station:NOAA.NERRS:wkbfrwq:1,2017-01-04T09:45:00Z,30.4162,-87.8228,2.4,0.2,1111122 
NERRS,ioos:station:NOAA.NERRS:wkbfrwq:1,2017-01-04T10:45:00Z,30.4162,-87.8228,2.37,0.2,1111122 
NERRS,ioos:station:NOAA.NERRS:wkbfrwq:1,2017-01-04T12:45:00Z,30.4162,-87.8228,2.28,0.2,1111122 
NERRS,ioos:station:NOAA.NERRS:wkbfrwq:1,2017-01-04T13:45:00Z,30.4162,-87.8228,2.24,0.2,1111122 
NERRS,ioos:station:NOAA.NERRS:wkbfrwq:1,2017-01-04T14:45:00Z,30.4162,-87.8228,2.11,0.2,1111122 
NERRS,ioos:station:NOAA.NERRS:wkbfrwq:1,2017-01-04T15:45:00Z,30.4162,-87.8228,2.01,0.2,1111122 
NERRS,ioos:station:NOAA.NERRS:wkbfrwq:1,2017-01-04T16:45:00Z,30.4162,-87.8228,2.0,0.2,1111122 
NERRS,ioos:station:NOAA.NERRS:wkbfrwq:1,2017-01-04T17:45:00Z,30.4162,-87.8228,2.06,0.2,1111122 
NERRS,ioos:station:NOAA.NERRS:wkbfrwq:1,2017-01-04T18:45:00Z,30.4162,-87.8228,2.07,0.2,1111122 
NERRS,ioos:station:NOAA.NERRS:wkbfrwq:1,2017-01-04T19:45:00Z,30.4162,-87.8228,2.06,0.2,1111122 
NERRS,ioos:station:NOAA.NERRS:wkbfrwq:1,2017-01-04T20:45:00Z,30.4162,-87.8228,2.06,0.2,1111122 
NERRS,ioos:station:NOAA.NERRS:wkbfrwq:1,2017-01-04T21:45:00Z,30.4162,-87.8228,2.12,0.2,1111122 
NERRS,ioos:station:NOAA.NERRS:wkbfrwq:1,2017-01-04T22:45:00Z,30.4162,-87.8228,2.2,0.2,1111122 
NERRS,ioos:station:NOAA.NERRS:wkbfrwq:1,2017-01-04T23:45:00Z,30.4162,-87.8228,2.2,0.2,1111122 
NERRS,ioos:station:NOAA.NERRS:wkbfrwq:1,2017-01-05T00:45:00Z,30.4162,-87.8228,2.17,0.2,1111122 
NERRS,ioos:station:NOAA.NERRS:wkbfrwq:1,2017-01-05T01:45:00Z,30.4162,-87.8228,2.16,0.2,1111122 
NERRS,ioos:station:NOAA.NERRS:wkbfrwq:1,2017-01-05T02:45:00Z,30.4162,-87.8228,2.13,0.2,1111122 
NERRS,ioos:station:NOAA.NERRS:wkbfrwq:1,2017-01-05T03:45:00Z,30.4162,-87.8228,2.12,0.2,1111122 
NERRS,ioos:station:NOAA.NERRS:wkbfrwq:1,2017-01-05T04:45:00Z,30.4162,-87.8228,2.12,0.2,1111122 
NERRS,ioos:station:NOAA.NERRS:wkbfrwq:1,2017-01-05T05:45:00Z,30.4162,-87.8228,2.11,0.2,1111122 
NERRS,ioos:station:NOAA.NERRS:wkbfrwq:1,2017-01-05T06:45:00Z,30.4162,-87.8228,2.14,0.2,1111122 
NERRS,ioos:station:NOAA.NERRS:wkbfrwq:1,2017-01-05T07:45:00Z,30.4162,-87.8228,2.16,0.2,1111122 
NERRS,ioos:station:NOAA.NERRS:wkbfrwq:1,2017-01-05T08:45:00Z,30.4162,-87.8228,2.2,0.2,1111122 
NERRS,ioos:station:NOAA.NERRS:wkbfrwq:1,2017-01-05T09:45:00Z,30.4162,-87.8228,2.22,0.2,1111122 
NERRS,ioos:station:NOAA.NERRS:wkbfrwq:1,2017-01-05T10:45:00Z,30.4162,-87.8228,2.23,0.2,1111122 
NERRS,ioos:station:NOAA.NERRS:wkbfrwq:1,2017-01-05T11:45:00Z,30.4162,-87.8228,2.21,0.2,1111122 
NERRS,ioos:station:NOAA.NERRS:wkbfrwq:1,2017-01-05T12:45:00Z,30.4162,-87.8228,2.17,0.2,1111122 
NERRS,ioos:station:NOAA.NERRS:wkbfrwq:1,2017-01-05T13:45:00Z,30.4162,-87.8228,2.14,0.2,1111122 
NERRS,ioos:station:NOAA.NERRS:wkbfrwq:1,2017-01-05T14:45:00Z,30.4162,-87.8228,2.11,0.2,1111122 
NERRS,ioos:station:NOAA.NERRS:wkbfrwq:1,2017-01-05T16:45:00Z,30.4162,-87.8228,2.09,0.2,1111122 
NERRS,ioos:station:NOAA.NERRS:wkbfrwq:1,2017-01-05T17:45:00Z,30.4162,-87.8228,2.09,0.2,1111122 
NERRS,ioos:station:NOAA.NERRS:wkbfrwq:1,2017-01-05T18:45:00Z,30.4162,-87.8228,2.1,0.2,1111122 
NERRS,ioos:station:NOAA.NERRS:wkbfrwq:1,2017-01-05T19:45:00Z,30.4162,-87.8228,2.11,0.2,1111122 
NERRS,ioos:station:NOAA.NERRS:wkbfrwq:1,2017-01-05T20:45:00Z,30.4162,-87.8228,2.15,0.2,1111122 
NERRS,ioos:station:NOAA.NERRS:wkbfrwq:1,2017-01-05T21:45:00Z,30.4162,-87.8228,2.2,0.3,1111122 
NERRS,ioos:station:NOAA.NERRS:wkbfrwq:1,2017-01-05T22:45:00Z,30.4162,-87.8228,2.24,0.3,1111122 
NERRS,ioos:station:NOAA.NERRS:wkbfrwq:1,2017-01-05T23:45:00Z,30.4162,-87.8228,2.25,0.3,1111122 
NERRS,ioos:station:NOAA.NERRS:wkbfrwq:1,2017-01-06T00:45:00Z,30.4162,-87.8228,2.26,0.4,1111122 
NERRS,ioos:station:NOAA.NERRS:wkbfrwq:1,2017-01-06T01:45:00Z,30.4162,-87.8228,2.29,0.5,1111122 
NERRS,ioos:station:NOAA.NERRS:wkbfrwq:1,2017-01-06T02:45:00Z,30.4162,-87.8228,2.27,0.5,1111122 
NERRS,ioos:station:NOAA.NERRS:wkbfrwq:1,2017-01-06T03:45:00Z,30.4162,-87.8228,2.24,0.4,1111122 
NERRS,ioos:station:NOAA.NERRS:wkbfrwq:1,2017-01-06T04:45:00Z,30.4162,-87.8228,2.25,0.5,1111122 
NERRS,ioos:station:NOAA.NERRS:wkbfrwq:1,2017-01-06T05:45:00Z,30.4162,-87.8228,2.23,0.5,1111122 
NERRS,ioos:station:NOAA.NERRS:wkbfrwq:1,2017-01-06T06:45:00Z,30.4162,-87.8228,2.18,0.5,1111122 
NERRS,ioos:station:NOAA.NERRS:wkbfrwq:1,2017-01-06T07:45:00Z,30.4162,-87.8228,2.16,0.6,1111122 
NERRS,ioos:station:NOAA.NERRS:wkbfrwq:1,2017-01-06T08:45:00Z,30.4162,-87.8228,2.13,0.6,1111122 
NERRS,ioos:station:NOAA.NERRS:wkbfrwq:1,2017-01-06T09:45:00Z,30.4162,-87.8228,2.05,0.5,1111122 
NERRS,ioos:station:NOAA.NERRS:wkbfrwq:1,2017-01-06T10:45:00Z,30.4162,-87.8228,2.03,0.5,1111122 
NERRS,ioos:station:NOAA.NERRS:wkbfrwq:1,2017-01-06T11:45:00Z,30.4162,-87.8228,2.02,1.2,1111122 
NERRS,ioos:station:NOAA.NERRS:wkbfrwq:1,2017-01-06T12:45:00Z,30.4162,-87.8228,2.0,1.4,1111122 
NERRS,ioos:station:NOAA.NERRS:wkbfrwq:1,2017-01-06T13:45:00Z,30.4162,-87.8228,2.0,1.9,1111122 
NERRS,ioos:station:NOAA.NERRS:wkbfrwq:1,2017-01-06T14:45:00Z,30.4162,-87.8228,1.97,2.3,1111122 
NERRS,ioos:station:NOAA.NERRS:wkbfrwq:1,2017-01-06T15:45:00Z,30.4162,-87.8228,1.99,2.7,1111122 
NERRS,ioos:station:NOAA.NERRS:wkbfrwq:1,2017-01-06T16:45:00Z,30.4162,-87.8228,1.95,3.1,1111122 
NERRS,ioos:station:NOAA.NERRS:wkbfrwq:1,2017-01-06T17:45:00Z,30.4162,-87.8228,0.0,3.6,1111122 
NERRS,ioos:station:NOAA.NERRS:wkbfrwq:1,2017-01-06T18:45:00Z,30.4162,-87.8228,1.97,3.8,1111122 
NERRS,ioos:station:NOAA.NERRS:wkbfrwq:1,2017-01-06T19:45:00Z,30.4162,-87.8228,2.03,3.3,1111122 
NERRS,ioos:station:NOAA.NERRS:wkbfrwq:1,2017-01-06T20:45:00Z,30.4162,-87.8228,1.97,3.2,1111122 
NERRS,ioos:station:NOAA.NERRS:wkbfrwq:1,2017-01-06T21:45:00Z,30.4162,-87.8228,0.0,2.9,1111122 
NERRS,ioos:station:NOAA.NERRS:wkbfrwq:1,2017-01-06T23:45:00Z,30.4162,-87.8228,2.1,3.7,1111122 
NERRS,ioos:station:NOAA.NERRS:wkbfrwq:1,2017-01-07T00:45:00Z,30.4162,-87.8228,2.15,3.1,1111122 
NERRS,ioos:station:NOAA.NERRS:wkbfrwq:1,2017-01-07T01:45:00Z,30.4162,-87.8228,2.21,3.7,1111122 
NERRS,ioos:station:NOAA.NERRS:wkbfrwq:1,2017-01-07T02:45:00Z,30.4162,-87.8228,2.21,3.5,1111122 
NERRS,ioos:station:NOAA.NERRS:wkbfrwq:1,2017-01-07T03:45:00Z,30.4162,-87.8228,2.14,2.7,1111122 
NERRS,ioos:station:NOAA.NERRS:wkbfrwq:1,2017-01-07T04:45:00Z,30.4162,-87.8228,2.1,2.3,1111122 
NERRS,ioos:station:NOAA.NERRS:wkbfrwq:1,2017-01-07T05:45:00Z,30.4162,-87.8228,2.09,2.3,1111122 
NERRS,ioos:station:NOAA.NERRS:wkbfrwq:1,2017-01-07T06:45:00Z,30.4162,-87.8228,2.06,2.0,1111122 
NERRS,ioos:station:NOAA.NERRS:wkbfrwq:1,2017-01-07T07:45:00Z,30.4162,-87.8228,2.06,1.9,1111122 
NERRS,ioos:station:NOAA.NERRS:wkbfrwq:1,2017-01-07T08:45:00Z,30.4162,-87.8228,2.05,1.9,1111122 
NERRS,ioos:station:NOAA.NERRS:wkbfrwq:1,2017-01-07T09:45:00Z,30.4162,-87.8228,2.05,1.9,1111122 
NERRS,ioos:station:NOAA.NERRS:wkbfrwq:1,2017-01-07T10:45:00Z,30.4162,-87.8228,1.94,1.7,1111122 
NERRS,ioos:station:NOAA.NERRS:wkbfrwq:1,2017-01-07T11:45:00Z,30.4162,-87.8228,1.92,1.6,1111122 
NERRS,ioos:station:NOAA.NERRS:wkbfrwq:1,2017-01-07T12:45:00Z,30.4162,-87.8228,1.96,1.6,1111122 
NERRS,ioos:station:NOAA.NERRS:wkbfrwq:1,2017-01-07T13:45:00Z,30.4162,-87.8228,1.95,1.6,1111122 
NERRS,ioos:station:NOAA.NERRS:wkbfrwq:1,2017-01-07T14:15:00Z,30.4162,-87.8228,1.91,1.5,1111122 
NERRS,ioos:station:NOAA.NERRS:wkbfrwq:1,2017-01-25T21:45:00Z,30.4162,-87.8228,2.2,5.5,1111122 
NERRS,ioos:station:NOAA.NERRS:wkbfrwq:1,2017-01-25T22:45:00Z,30.4162,-87.8228,2.29,5.3,1111122 
NERRS,ioos:station:NOAA.NERRS:wkbfrwq:1,2017-01-25T23:45:00Z,30.4162,-87.8228,2.34,5.3,1111122 
NERRS,ioos:station:NOAA.NERRS:wkbfrwq:1,2017-01-26T00:45:00Z,30.4162,-87.8228,2.37,5.6,1111122 
NERRS,ioos:station:NOAA.NERRS:wkbfrwq:1,2017-01-26T01:45:00Z,30.4162,-87.8228,2.42,5.5,1111122 
NERRS,ioos:station:NOAA.NERRS:wkbfrwq:1,2017-01-26T02:45:00Z,30.4162,-87.8228,2.5,5.7,1111122 
NERRS,ioos:station:NOAA.NERRS:wkbfrwq:1,2017-01-26T03:45:00Z,30.4162,-87.8228,2.56,5.5,1111122 
NERRS,ioos:station:NOAA.NERRS:wkbfrwq:1,2017-01-26T04:45:00Z,30.4162,-87.8228,2.56,6.0,1111122 
NERRS,ioos:station:NOAA.NERRS:wkbfrwq:1,2017-01-26T05:45:00Z,30.4162,-87.8228,2.54,6.0,1111122 
NERRS,ioos:station:NOAA.NERRS:wkbfrwq:1,2017-01-26T06:45:00Z,30.4162,-87.8228,2.5,6.0,1111122 
NERRS,ioos:station:NOAA.NERRS:wkbfrwq:1,2017-01-26T07:45:00Z,30.4162,-87.8228,2.42,5.6,1111122 
NERRS,ioos:station:NOAA.NERRS:wkbfrwq:1,2017-01-26T08:45:00Z,30.4162,-87.8228,2.3,5.2,1111122 
NERRS,ioos:station:NOAA.NERRS:wkbfrwq:1,2017-01-26T09:45:00Z,30.4162,-87.8228,2.26,4.7,1111122 
NERRS,ioos:station:NOAA.NERRS:wkbfrwq:1,2017-01-26T10:45:00Z,30.4162,-87.8228,2.15,3.4,1111122 
NERRS,ioos:station:NOAA.NERRS:wkbfrwq:1,2017-01-26T11:45:00Z,30.4162,-87.8228,2.03,2.0,1111122 
NERRS,ioos:station:NOAA.NERRS:wkbfrwq:1,2017-01-26T12:45:00Z,30.4162,-87.8228,1.97,1.8,1111122 
NERRS,ioos:station:NOAA.NERRS:wkbfrwq:1,2017-01-26T13:45:00Z,30.4162,-87.8228,2.02,4.7,1111122 
NERRS,ioos:station:NOAA.NERRS:wkbfrwq:1,2017-01-26T14:45:00Z,30.4162,-87.8228,2.0,1.9,1111122 
NERRS,ioos:station:NOAA.NERRS:wkbfrwq:1,2017-01-26T15:45:00Z,30.4162,-87.8228,1.88,2.0,1111122 
NERRS,ioos:station:NOAA.NERRS:wkbfrwq:1,2017-01-26T16:45:00Z,30.4162,-87.8228,1.8,1.8,1111122 
NERRS,ioos:station:NOAA.NERRS:wkbfrwq:1,2017-01-26T17:45:00Z,30.4162,-87.8228,1.8,2.5,1111122 
NERRS,ioos:station:NOAA.NERRS:wkbfrwq:1,2017-01-26T18:45:00Z,30.4162,-87.8228,1.87,3.1,1111122 
NERRS,ioos:station:NOAA.NERRS:wkbfrwq:1,2017-01-26T19:45:00Z,30.4162,-87.8228,1.95,3.1,1111122 
NERRS,ioos:station:NOAA.NERRS:wkbfrwq:1,2017-01-26T20:45:00Z,30.4162,-87.8228,2.01,3.1,1111122 
NERRS,ioos:station:NOAA.NERRS:wkbfrwq:1,2017-01-26T21:45:00Z,30.4162,-87.8228,2.08,4.5,1111122 
NERRS,ioos:station:NOAA.NERRS:wkbfrwq:1,2017-01-26T22:45:00Z,30.4162,-87.8228,2.18,3.8,1111122 
NERRS,ioos:station:NOAA.NERRS:wkbfrwq:1,2017-01-26T23:45:00Z,30.4162,-87.8228,2.25,4.9,1111122 
NERRS,ioos:station:NOAA.NERRS:wkbfrwq:1,2017-01-27T00:45:00Z,30.4162,-87.8228,2.29,5.6,1111122 
NERRS,ioos:station:NOAA.NERRS:wkbfrwq:1,2017-01-27T01:45:00Z,30.4162,-87.8228,2.38,5.3,1111122 
NERRS,ioos:station:NOAA.NERRS:wkbfrwq:1,2017-01-27T02:45:00Z,30.4162,-87.8228,2.45,5.5,1111122 
NERRS,ioos:station:NOAA.NERRS:wkbfrwq:1,2017-01-27T03:45:00Z,30.4162,-87.8228,2.46,6.9,1111122 
NERRS,ioos:station:NOAA.NERRS:wkbfrwq:1,2017-01-27T04:45:00Z,30.4162,-87.8228,2.4,5.7,1111122 
NERRS,ioos:station:NOAA.NERRS:wkbfrwq:1,2017-01-27T05:45:00Z,30.4162,-87.8228,2.34,4.9,1111122 
NERRS,ioos:station:NOAA.NERRS:wkbfrwq:1,2017-01-27T06:45:00Z,30.4162,-87.8228,2.29,6.0,1111122 
NERRS,ioos:station:NOAA.NERRS:wkbfrwq:1,2017-01-27T07:45:00Z,30.4162,-87.8228,2.25,5.6,1111122 
NERRS,ioos:station:NOAA.NERRS:wkbfrwq:1,2017-01-27T08:45:00Z,30.4162,-87.8228,2.16,4.8,1111122 
NERRS,ioos:station:NOAA.NERRS:wkbfrwq:1,2017-01-27T09:45:00Z,30.4162,-87.8228,2.07,3.8,1111122 
NERRS,ioos:station:NOAA.NERRS:wkbfrwq:1,2017-01-27T11:45:00Z,30.4162,-87.8228,1.92,2.7,1111122 
NERRS,ioos:station:NOAA.NERRS:wkbfrwq:1,2017-01-27T12:45:00Z,30.4162,-87.8228,1.9,3.2,1111122 
NERRS,ioos:station:NOAA.NERRS:wkbfrwq:1,2017-01-27T13:45:00Z,30.4162,-87.8228,1.88,5.9,1111122 
NERRS,ioos:station:NOAA.NERRS:wkbfrwq:1,2017-01-27T14:45:00Z,30.4162,-87.8228,1.87,2.1,1111122 
NERRS,ioos:station:NOAA.NERRS:wkbfrwq:1,2017-01-27T15:45:00Z,30.4162,-87.8228,1.84,2.1,1111122 
NERRS,ioos:station:NOAA.NERRS:wkbfrwq:1,2017-01-27T16:45:00Z,30.4162,-87.8228,1.84,4.3,1111122 
NERRS,ioos:station:NOAA.NERRS:wkbfrwq:1,2017-01-27T17:45:00Z,30.4162,-87.8228,1.87,4.1,1111122 
NERRS,ioos:station:NOAA.NERRS:wkbfrwq:1,2017-01-27T18:45:00Z,30.4162,-87.8228,1.9,2.7,1111122 
NERRS,ioos:station:NOAA.NERRS:wkbfrwq:1,2017-01-27T19:45:00Z,30.4162,-87.8228,1.95,3.5,1111122 
NERRS,ioos:station:NOAA.NERRS:wkbfrwq:1,2017-01-27T20:45:00Z,30.4162,-87.8228,2.05,3.9,1111122 
NERRS,ioos:station:NOAA.NERRS:wkbfrwq:1,2017-01-27T21:45:00Z,30.4162,-87.8228,2.13,5.4,1111122 
NERRS,ioos:station:NOAA.NERRS:wkbfrwq:1,2017-01-27T22:45:00Z,30.4162,-87.8228,2.19,5.5,1111122 
NERRS,ioos:station:NOAA.NERRS:wkbfrwq:1,2017-01-27T23:45:00Z,30.4162,-87.8228,2.21,6.2,1111122 
NERRS,ioos:station:NOAA.NERRS:wkbfrwq:1,2017-01-28T00:45:00Z,30.4162,-87.8228,2.25,6.4,1111122 
NERRS,ioos:station:NOAA.NERRS:wkbfrwq:1,2017-01-28T01:45:00Z,30.4162,-87.8228,2.26,6.5,1111122 
NERRS,ioos:station:NOAA.NERRS:wkbfrwq:1,2017-01-28T02:45:00Z,30.4162,-87.8228,2.26,6.0,1111122 
NERRS,ioos:station:NOAA.NERRS:wkbfrwq:1,2017-01-28T03:45:00Z,30.4162,-87.8228,2.29,6.8,1111122 
NERRS,ioos:station:NOAA.NERRS:wkbfrwq:1,2017-01-28T04:45:00Z,30.4162,-87.8228,2.34,5.8,1111122 
NERRS,ioos:station:NOAA.NERRS:wkbfrwq:1,2017-01-28T05:45:00Z,30.4162,-87.8228,2.36,6.3,1111122 
NERRS,ioos:station:NOAA.NERRS:wkbfrwq:1,2017-01-28T06:45:00Z,30.4162,-87.8228,2.33,6.4,1111122 
NERRS,ioos:station:NOAA.NERRS:wkbfrwq:1,2017-01-28T07:45:00Z,30.4162,-87.8228,2.27,6.1,1111122 
NERRS,ioos:station:NOAA.NERRS:wkbfrwq:1,2017-01-28T08:45:00Z,30.4162,-87.8228,2.21,5.4,1111122 
NERRS,ioos:station:NOAA.NERRS:wkbfrwq:1,2017-01-28T09:45:00Z,30.4162,-87.8228,2.14,5.7,1111122 
NERRS,ioos:station:NOAA.NERRS:wkbfrwq:1,2017-01-28T10:45:00Z,30.4162,-87.8228,2.07,5.9,1111122 
NERRS,ioos:station:NOAA.NERRS:wkbfrwq:1,2017-01-28T11:45:00Z,30.4162,-87.8228,2.02,5.5,1111122 
NERRS,ioos:station:NOAA.NERRS:wkbfrwq:1,2017-01-28T12:45:00Z,30.4162,-87.8228,1.96,5.6,1111122 
NERRS,ioos:station:NOAA.NERRS:wkbfrwq:1,2017-01-28T13:45:00Z,30.4162,-87.8228,1.9,5.0,1111122 
NERRS,ioos:station:NOAA.NERRS:wkbfrwq:1,2017-01-28T14:45:00Z,30.4162,-87.8228,1.86,5.9,1111122 
NERRS,ioos:station:NOAA.NERRS:wkbfrwq:1,2017-01-28T15:45:00Z,30.4162,-87.8228,1.85,7.7,1111122 
NERRS,ioos:station:NOAA.NERRS:wkbfrwq:1,2017-01-28T16:45:00Z,30.4162,-87.8228,1.84,7.6,1111122 
NERRS,ioos:station:NOAA.NERRS:wkbfrwq:1,2017-01-28T17:45:00Z,30.4162,-87.8228,1.87,7.4,1111122 
NERRS,ioos:station:NOAA.NERRS:wkbfrwq:1,2017-01-28T18:45:00Z,30.4162,-87.8228,1.92,6.4,1111122 
NERRS,ioos:station:NOAA.NERRS:wkbfrwq:1,2017-01-28T19:45:00Z,30.4162,-87.8228,2.01,6.0,1111122 
NERRS,ioos:station:NOAA.NERRS:wkbfrwq:1,2017-01-28T20:45:00Z,30.4162,-87.8228,2.06,6.4,1111122 
NERRS,ioos:station:NOAA.NERRS:wkbfrwq:1,2017-01-28T21:45:00Z,30.4162,-87.8228,2.09,7.3,1111122 
NERRS,ioos:station:NOAA.NERRS:wkbfrwq:1,2017-01-28T22:45:00Z,30.4162,-87.8228,2.14,6.9,1111122 
NERRS,ioos:station:NOAA.NERRS:wkbfrwq:1,2017-01-28T23:45:00Z,30.4162,-87.8228,2.2,6.9,1111122 
NERRS,ioos:station:NOAA.NERRS:wkbfrwq:1,2017-01-29T00:45:00Z,30.4162,-87.8228,2.25,7.2,1111122 
NERRS,ioos:station:NOAA.NERRS:wkbfrwq:1,2017-01-29T01:45:00Z,30.4162,-87.8228,2.28,8.4,1111122 
NERRS,ioos:station:NOAA.NERRS:wkbfrwq:1,2017-01-29T03:45:00Z,30.4162,-87.8228,2.42,5.3,1111122 
NERRS,ioos:station:NOAA.NERRS:wkbfrwq:1,2017-01-29T04:45:00Z,30.4162,-87.8228,2.43,6.9,1111122 
NERRS,ioos:station:NOAA.NERRS:wkbfrwq:1,2017-01-29T05:45:00Z,30.4162,-87.8228,2.44,8.5,1111122 
NERRS,ioos:station:NOAA.NERRS:wkbfrwq:1,2017-01-29T07:45:00Z,30.4162,-87.8228,2.36,7.9,1111122 
NERRS,ioos:station:NOAA.NERRS:wkbfrwq:1,2017-01-29T08:45:00Z,30.4162,-87.8228,2.32,8.2,1111122 
NERRS,ioos:station:NOAA.NERRS:wkbfrwq:1,2017-01-29T09:45:00Z,30.4162,-87.8228,2.24,6.5,1111122 
NERRS,ioos:station:NOAA.NERRS:wkbfrwq:1,2017-01-29T10:45:00Z,30.4162,-87.8228,2.15,5.4,1111122 
NERRS,ioos:station:NOAA.NERRS:wkbfrwq:1,2017-01-29T11:45:00Z,30.4162,-87.8228,2.07,4.7,1111122 
NERRS,ioos:station:NOAA.NERRS:wkbfrwq:1,2017-01-29T12:45:00Z,30.4162,-87.8228,2.02,6.3,1111122 
NERRS,ioos:station:NOAA.NERRS:wkbfrwq:1,2017-01-29T13:45:00Z,30.4162,-87.8228,1.99,6.1,1111122 
NERRS,ioos:station:NOAA.NERRS:wkbfrwq:1,2017-01-29T14:45:00Z,30.4162,-87.8228,1.98,6.7,1111122 
NERRS,ioos:station:NOAA.NERRS:wkbfrwq:1,2017-01-29T15:45:00Z,30.4162,-87.8228,1.98,7.4,1111122 
NERRS,ioos:station:NOAA.NERRS:wkbfrwq:1,2017-01-29T17:45:00Z,30.4162,-87.8228,2.06,5.2,1111122 
NERRS,ioos:station:NOAA.NERRS:wkbfrwq:1,2017-01-29T18:45:00Z,30.4162,-87.8228,2.11,4.5,1111122 
NERRS,ioos:station:NOAA.NERRS:wkbfrwq:1,2017-01-29T19:45:00Z,30.4162,-87.8228,2.14,4.2,1111122 
NERRS,ioos:station:NOAA.NERRS:wkbfrwq:1,2017-01-29T20:45:00Z,30.4162,-87.8228,2.17,5.4,1111122 
NERRS,ioos:station:NOAA.NERRS:wkbfrwq:1,2017-01-29T21:45:00Z,30.4162,-87.8228,2.18,5.7,1111122 
NERRS,ioos:station:NOAA.NERRS:wkbfrwq:1,2017-01-29T22:45:00Z,30.4162,-87.8228,2.17,6.1,1111122 
NERRS,ioos:station:NOAA.NERRS:wkbfrwq:1,2017-01-29T23:45:00Z,30.4162,-87.8228,2.18,6.9,1111122 
NERRS,ioos:station:NOAA.NERRS:wkbfrwq:1,2017-01-30T00:45:00Z,30.4162,-87.8228,2.21,6.6,1111122 
NERRS,ioos:station:NOAA.NERRS:wkbfrwq:1,2017-01-30T01:45:00Z,30.4162,-87.8228,2.21,6.2,1111122 
NERRS,ioos:station:NOAA.NERRS:wkbfrwq:1,2017-01-30T02:45:00Z,30.4162,-87.8228,2.21,6.0,1111122 
NERRS,ioos:station:NOAA.NERRS:wkbfrwq:1,2017-01-30T03:45:00Z,30.4162,-87.8228,2.22,6.1,1111122 
NERRS,ioos:station:NOAA.NERRS:wkbfrwq:1,2017-01-30T04:45:00Z,30.4162,-87.8228,2.21,6.1,1111122 
NERRS,ioos:station:NOAA.NERRS:wkbfrwq:1,2017-01-30T05:45:00Z,30.4162,-87.8228,0.0,6.1,1111122 
NERRS,ioos:station:NOAA.NERRS:wkbfrwq:1,2017-01-30T06:45:00Z,30.4162,-87.8228,2.11,5.0,1111122 
NERRS,ioos:station:NOAA.NERRS:wkbfrwq:1,2017-01-30T07:45:00Z,30.4162,-87.8228,2.03,4.5,1111122 